QPF
0.02 0.01 0.02 0.02 0.01 0.00 0.00 0.01 0.01 0.01 0.01 0.00 0.01 0.01 0.01 0.01 0.01 0.01 0.03 0.05 0.04 0.04 0.05 0.04 0.04 0.05 0.04 0.05 0.06 0.07 0.07 0.07 0.06 0.06 0.06 0.04 0.03 0.03 0.03 0.04 0.03 0.03 0.03
0.03 0.02 0.01 0.01 0.01 0.01 0.01 0.01 0.01 0.01 0.01 0.01 0.00 0.00 0.01 0.01 0.01 0.01 0.01 0.02 0.02 0.03 0.03 0.04 0.04 0.04 0.03 0.04 0.07 0.08 0.07 0.06 0.06 0.05 0.05 0.04 0.04 0.04 0.04 0.04 0.04 0.04 0.04
0.03 0.02 0.02 0.01 0.01 0.01 0.01 0.02 0.01 0.00 0.00 0.00 0.00 0.00 0.00 0.00 0.01 0.01 0.01 0.01 0.01 0.01 0.02 0.03 0.04 0.04 0.04 0.06 0.10 0.11 0.09 0.08 0.07 0.05 0.04 0.03 0.03 0.03 0.04 0.05 0.05 0.04 0.06
0.05 0.04 0.03 0.02 0.02 0.02 0.02 0.02 0.01 0.01 0.01 0.01 0.01 0.00 0.00 0.00 0.00 0.00 0.01 0.01 0.01 0.01 0.01 0.02 0.03 0.05 0.08 0.11 0.14 0.14 0.10 0.07 0.06 0.04 0.03 0.03 0.02 0.03 0.03 0.04 0.06 0.06 0.06
0.08 0.05 0.03 0.03 0.03 0.03 0.03 0.03 0.02 0.02 0.02 0.02 0.01 0.00 0.00 0.00 0.00 0.00 0.00 0.00 0.01 0.01 0.01 0.02 0.03 0.06 0.09 0.13 0.16 0.16 0.11 0.06 0.03 0.02 0.02 0.02 0.02 0.03 0.04 0.05 0.06 0.06 0.06
0.11 0.07 0.04 0.03 0.03 0.04 0.04 0.04 0.03 0.02 0.02 0.02 0.01 0.01 0.01 0.00 0.00 0.00 0.00 0.00 0.01 0.01 0.01 0.02 0.02 0.03 0.05 0.07 0.09 0.09 0.07 0.05 0.03 0.02 0.02 0.02 0.01 0.02 0.04 0.04 0.05 0.06 0.05
0.08 0.07 0.06 0.05 0.04 0.04 0.04 0.04 0.03 0.03 0.02 0.02 0.01 0.01 0.00 0.01 0.00 0.00 0.00 0.00 0.00 0.00 0.01 0.01 0.02 0.03 0.03 0.04 0.05 0.05 0.05 0.04 0.03 0.02 0.02 0.02 0.02 0.02 0.03 0.03 0.04 0.06 0.05
0.03 0.04 0.05 0.05 0.05 0.04 0.04 0.04 0.03 0.03 0.03 0.02 0.01 0.00 0.00 0.00 0.00 0.00 0.00 0.00 0.00 0.00 0.00 0.01 0.01 0.02 0.02 0.03 0.03 0.03 0.03 0.03 0.03 0.03 0.02 0.02 0.02 0.02 0.03 0.04 0.03 0.04 0.05
0.01 0.01 0.03 0.04 0.03 0.03 0.03 0.02 0.02 0.01 0.02 0.02 0.01 0.00 0.00 0.00 0.00 0.00 0.00 0.00 0.00 0.00 0.00 0.00 0.00 0.01 0.01 0.01 0.01 0.01 0.01 0.01 0.01 0.02 0.03 0.04 0.04 0.04 0.04 0.05 0.04 0.03 0.04
0.02 0.02 0.02 0.03 0.02 0.03 0.04 0.04 0.02 0.02 0.02 0.02 0.01 0.01 0.00 0.01 0.01 0.01 0.00 0.00 0.00 0.00 0.00 0.00 0.00 0.00 0.00 0.01 0.00 0.01 0.01 0.01 0.01 0.01 0.02 0.03 0.05 0.05 0.05 0.05 0.05 0.03 0.04
0.03 0.03 0.03 0.02 0.02 0.03 0.03 0.04 0.04 0.02 0.02 0.02 0.03 0.03 0.03 0.03 0.02 0.01 0.01 0.00 0.00 0.00 0.00 0.00 0.01 0.01 0.00 0.00 0.01 0.01 0.01 0.01 0.01 0.01 0.02 0.03 0.04 0.04 0.06 0.06 0.06 0.03 0.03
0.03 0.03 0.02 0.02 0.02 0.02 0.02 0.04 0.04 0.03 0.02 0.01 0.02 0.02 0.03 0.02 0.02 0.01 0.00 0.00 0.00 0.00 0.00 0.00 0.01 0.01 0.01 0.00 0.01 0.01 0.01 0.01 0.01 0.01 0.01 0.02 0.03 0.02 0.04 0.04 0.05 0.04 0.03
0.03 0.03 0.03 0.02 0.02 0.02 0.01 0.02 0.03 0.03 0.02 0.01 0.01 0.02 0.02 0.01 0.01 0.01 0.00 0.00 0.00 0.00 0.00 0.00 0.00 0.01 0.01 0.01 0.00 0.01 0.01 0.01 0.01 0.00 0.01 0.01 0.01 0.02 0.03 0.04 0.04 0.04 0.05
0.03 0.03 0.03 0.03 0.02 0.02 0.02 0.02 0.02 0.02 0.03 0.03 0.02 0.02 0.02 0.02 0.03 0.03 0.02 0.01 0.00 0.00 0.00 0.00 0.00 0.00 0.01 0.01 0.01 0.01 0.01 0.01 0.01 0.01 0.01 0.01 0.01 0.03 0.08 0.06 0.04 0.04 0.05
0.06 0.05 0.04 0.04 0.03 0.02 0.02 0.02 0.02 0.03 0.02 0.03 0.03 0.03 0.03 0.03 0.03 0.03 0.03 0.02 0.01 0.01 0.00 0.00 0.00 0.01 0.01 0.01 0.01 0.01 0.01 0.02 0.02 0.02 0.02 0.02 0.02 0.07 0.13 0.07 0.05 0.05 0.05
0.06 0.06 0.05 0.05 0.04 0.03 0.03 0.02 0.02 0.03 0.03 0.03 0.03 0.03 0.02 0.02 0.02 0.02 0.02 0.02 0.02 0.01 0.01 0.00 0.00 0.00 0.01 0.01 0.01 0.01 0.02 0.01 0.02 0.03 0.03 0.04 0.04 0.03 0.07 0.08 0.05 0.04 0.04
0.04 0.04 0.04 0.04 0.04 0.04 0.03 0.03 0.02 0.02 0.03 0.04 0.04 0.04 0.03 0.02 0.01 0.01 0.01 0.01 0.01 0.01 0.01 0.01 0.01 0.01 0.01 0.01 0.01 0.01 0.01 0.02 0.03 0.03 0.03 0.04 0.04 0.03 0.05 0.08 0.06 0.03 0.03
0.03 0.05 0.04 0.04 0.04 0.03 0.03 0.03 0.03 0.03 0.02 0.03 0.04 0.05 0.03 0.02 0.01 0.01 0.01 0.01 0.01 0.01 0.01 0.01 0.01 0.01 0.02 0.02 0.02 0.02 0.02 0.03 0.03 0.03 0.03 0.03 0.04 0.04 0.04 0.06 0.06 0.05 0.04
0.04 0.03 0.04 0.03 0.03 0.03 0.03 0.02 0.02 0.03 0.03 0.03 0.03 0.04 0.04 0.02 0.02 0.02 0.03 0.02 0.02 0.01 0.01 0.01 0.01 0.01 0.02 0.02 0.03 0.03 0.02 0.02 0.02 0.03 0.04 0.04 0.04 0.04 0.03 0.03 0.03 0.03 0.03
0.04 0.04 0.02 0.02 0.02 0.03 0.03 0.03 0.03 0.03 0.03 0.03 0.02 0.03 0.04 0.03 0.02 0.03 0.03 0.02 0.02 0.02 0.02 0.01 0.01 0.02 0.02 0.03 0.03 0.04 0.04 0.03 0.02 0.02 0.02 0.03 0.03 0.04 0.04 0.03 0.02 0.02 0.03
0.04 0.05 0.04 0.02 0.02 0.02 0.03 0.03 0.03 0.04 0.04 0.03 0.02 0.02 0.03 0.03 0.03 0.02 0.02 0.02 0.02 0.02 0.01 0.02 0.02 0.02 0.03 0.03 0.03 0.05 0.06 0.05 0.03 0.03 0.02 0.02 0.01 0.01 0.02 0.03 0.03 0.02 0.03
0.04 0.04 0.04 0.03 0.02 0.01 0.01 0.02 0.02 0.03 0.04 0.04 0.02 0.02 0.03 0.03 0.03 0.02 0.02 0.02 0.02 0.01 0.01 0.01 0.02 0.02 0.03 0.03 0.04 0.06 0.06 0.06 0.04 0.03 0.02 0.02 0.01 0.01 0.01 0.01 0.02 0.02 0.03
0.02 0.02 0.02 0.02 0.01 0.01 0.01 0.02 0.02 0.02 0.03 0.04 0.03 0.02 0.02 0.03 0.04 0.02 0.02 0.02 0.02 0.01 0.01 0.01 0.01 0.02 0.02 0.03 0.04 0.06 0.06 0.05 0.05 0.04 0.03 0.02 0.01 0.01 0.01 0.02 0.02 0.02 0.03
0.02 0.02 0.01 0.01 0.01 0.01 0.01 0.01 0.02 0.02 0.02 0.03 0.03 0.03 0.03 0.03 0.04 0.03 0.02 0.01 0.01 0.01 0.01 0.01 0.01 0.02 0.02 0.02 0.03 0.05 0.07 0.07 0.06 0.04 0.02 0.01 0.01 0.01 0.01 0.01 0.02 0.03 0.02
0.02 0.02 0.01 0.01 0.01 0.01 0.01 0.01 0.01 0.01 0.01 0.02 0.02 0.02 0.02 0.03 0.05 0.05 0.03 0.01 0.01 0.01 0.01 0.01 0.01 0.01 0.02 0.02 0.03 0.05 0.06 0.06 0.05 0.05 0.03 0.02 0.01 0.01 0.01 0.01 0.02 0.04 0.03
0.03 0.02 0.02 0.02 0.01 0.01 0.02 0.01 0.01 0.01 0.01 0.02 0.02 0.02 0.02 0.03 0.05 0.06 0.03 0.01 0.01 0.01 0.01 0.01 0.01 0.01 0.01 0.02 0.02 0.04 0.05 0.05 0.04 0.04 0.05 0.03 0.02 0.02 0.02 0.02 0.02 0.03 0.04
MSLP
1012.86 1012.71 1012.49 1012.23 1011.94 1011.66 1011.41 1011.21 1011.08 1011.02 1011.03 1011.10 1011.20 1011.32 1011.43 1011.52 1011.55 1011.54 1011.47 1011.36 1011.22 1011.10 1011.00 1010.97 1011.00 1011.11 1011.26 1011.44 1011.61 1011.75 1011.86 1011.92 1011.95 1011.97 1012.01 1012.09 1012.20 1012.35 1012.51 1012.66 1012.77 1012.83 1012.84
1013.44 1013.27 1013.04 1012.78 1012.50 1012.22 1011.98 1011.80 1011.69 1011.65 1011.68 1011.77 1011.90 1012.05 1012.18 1012.29 1012.35 1012.35 1012.29 1012.20 1012.08 1011.97 1011.89 1011.85 1011.86 1011.91 1011.98 1012.06 1012.11 1012.13 1012.11 1012.06 1012.01 1011.97 1011.97 1012.03 1012.14 1012.28 1012.43 1012.56 1012.65 1012.68 1012.67
1014.00 1013.81 1013.59 1013.34 1013.08 1012.83 1012.61 1012.44 1012.34 1012.31 1012.35 1012.45 1012.60 1012.76 1012.92 1013.05 1013.13 1013.15 1013.11 1013.03 1012.94 1012.84 1012.77 1012.73 1012.72 1012.74 1012.75 1012.75 1012.71 1012.62 1012.49 1012.34 1012.20 1012.09 1012.04 1012.06 1012.13 1012.24 1012.37 1012.47 1012.53 1012.53 1012.50
1014.53 1014.34 1014.14 1013.92 1013.70 1013.49 1013.30 1013.15 1013.05 1013.02 1013.06 1013.16 1013.31 1013.48 1013.65 1013.79 1013.88 1013.91 1013.89 1013.83 1013.75 1013.66 1013.60 1013.56 1013.54 1013.53 1013.51 1013.45 1013.34 1013.18 1012.97 1012.74 1012.52 1012.34 1012.23 1012.19 1012.21 1012.27 1012.34 1012.40 1012.41 1012.39 1012.33
1015.03 1014.87 1014.70 1014.54 1014.37 1014.20 1014.05 1013.92 1013.82 1013.79 1013.81 1013.90 1014.03 1014.19 1014.36 1014.51 1014.60 1014.65 1014.63 1014.58 1014.50 1014.42 1014.35 1014.30 1014.28 1014.25 1014.21 1014.12 1013.98 1013.77 1013.51 1013.23 1012.96 1012.72 1012.54 1012.42 1012.37 1012.36 1012.37 1012.36 1012.32 1012.25 1012.16
1015.53 1015.39 1015.28 1015.17 1015.07 1014.95 1014.84 1014.72 1014.63 1014.58 1014.59 1014.65 1014.76 1014.91 1015.07 1015.21 1015.31 1015.36 1015.34 1015.28 1015.19 1015.10 1015.01 1014.95 1014.91 1014.88 1014.82 1014.72 1014.57 1014.35 1014.07 1013.77 1013.46 1013.17 1012.93 1012.75 1012.62 1012.53 1012.45 1012.36 1012.26 1012.14 1012.01
1016.02 1015.92 1015.86 1015.81 1015.76 1015.70 1015.62 1015.53 1015.44 1015.38 1015.36 1015.40 1015.50 1015.63 1015.78 1015.92 1016.02 1016.05 1016.03 1015.95 1015.84 1015.72 1015.61 1015.52 1015.46 1015.40 1015.33 1015.23 1015.08 1014.87 1014.60 1014.29 1013.97 1013.66 1013.37 1013.13 1012.92 1012.74 1012.58 1012.42 1012.25 1012.07 1011.90
1016.50 1016.44 1016.42 1016.43 1016.44 1016.42 1016.37 1016.30 1016.22 1016.15 1016.12 1016.14 1016.22 1016.35 1016.49 1016.63 1016.72 1016.75 1016.72 1016.62 1016.48 1016.32 1016.16 1016.03 1015.93 1015.84 1015.75 1015.64 1015.49 1015.29 1015.04 1014.74 1014.42 1014.10 1013.78 1013.50 1013.23 1012.98 1012.74 1012.51 1012.27 1012.04 1011.82
1016.96 1016.94 1016.96 1017.01 1017.05 1017.07 1017.05 1017.00 1016.93 1016.86 1016.83 1016.85 1016.92 1017.05 1017.19 1017.33 1017.43 1017.46 1017.41 1017.29 1017.12 1016.92 1016.71 1016.52 1016.36 1016.22 1016.09 1015.96 1015.79 1015.59 1015.35 1015.06 1014.75 1014.43 1014.11 1013.79 1013.49 1013.19 1012.90 1012.60 1012.32 1012.04 1011.78
1017.39 1017.40 1017.45 1017.52 1017.60 1017.64 1017.65 1017.61 1017.55 1017.50 1017.47 1017.50 1017.59 1017.72 1017.87 1018.02 1018.13 1018.16 1018.11 1017.98 1017.78 1017.53 1017.27 1017.02 1016.79 1016.58 1016.38 1016.19 1015.99 1015.76 1015.51 1015.23 1014.92 1014.61 1014.28 1013.96 1013.64 1013.32 1012.99 1012.67 1012.35 1012.04 1011.76
1017.77 1017.79 1017.87 1017.96 1018.05 1018.12 1018.15 1018.13 1018.10 1018.06 1018.05 1018.10 1018.20 1018.34 1018.51 1018.68 1018.79 1018.84 1018.79 1018.65 1018.43 1018.16 1017.85 1017.53 1017.22 1016.92 1016.64 1016.37 1016.10 1015.82 1015.53 1015.23 1014.92 1014.61 1014.29 1013.97 1013.65 1013.33 1013.00 1012.67 1012.33 1012.01 1011.71
1018.07 1018.12 1018.21 1018.32 1018.43 1018.51 1018.56 1018.57 1018.56 1018.55 1018.56 1018.63 1018.74 1018.90 1019.09 1019.26 1019.39 1019.45 1019.41 1019.28 1019.06 1018.76 1018.42 1018.04 1017.66 1017.28 1016.90 1016.53 1016.17 1015.81 1015.46 1015.12 1014.78 1014.46 1014.14 1013.83 1013.53 1013.22 1012.90 1012.57 1012.24 1011.92 1011.62
1018.28 1018.37 1018.48 1018.61 1018.73 1018.83 1018.90 1018.94 1018.95 1018.97 1019.01 1019.09 1019.22 1019.38 1019.57 1019.75 1019.89 1019.96 1019.94 1019.82 1019.61 1019.32 1018.96 1018.54 1018.10 1017.64 1017.17 1016.70 1016.23 1015.78 1015.34 1014.93 1014.55 1014.21 1013.88 1013.58 1013.28 1012.99 1012.69 1012.37 1012.06 1011.75 1011.45
1018.41 1018.54 1018.68 1018.83 1018.97 1019.09 1019.19 1019.25 1019.29 1019.33 1019.39 1019.48 1019.61 1019.77 1019.95 1020.12 1020.26 1020.34 1020.34 1020.25 1020.06 1019.78 1019.43 1019.01 1018.53 1018.01 1017.46 1016.89 1016.32 1015.77 1015.25 1014.76 1014.32 1013.93 1013.59 1013.27 1012.98 1012.69 1012.40 1012.10 1011.79 1011.49 1011.20
1018.47 1018.65 1018.82 1019.00 1019.17 1019.31 1019.43 1019.52 1019.59 1019.65 1019.72 1019.81 1019.92 1020.06 1020.22 1020.37 1020.50 1020.58 1020.59 1020.53 1020.38 1020.14 1019.81 1019.40 1018.92 1018.37 1017.77 1017.13 1016.48 1015.84 1015.23 1014.67 1014.16 1013.72 1013.33 1012.99 1012.68 1012.38 1012.08 1011.78 1011.47 1011.17 1010.88
1018.49 1018.71 1018.93 1019.14 1019.33 1019.50 1019.65 1019.76 1019.85 1019.92 1019.99 1020.07 1020.16 1020.27 1020.39 1020.51 1020.61 1020.69 1020.71 1020.68 1020.57 1020.38 1020.10 1019.72 1019.26 1018.71 1018.09 1017.42 1016.72 1016.02 1015.34 1014.70 1014.13 1013.62 1013.18 1012.79 1012.44 1012.10 1011.78 1011.45 1011.12 1010.81 1010.51
1018.48 1018.75 1019.01 1019.25 1019.48 1019.68 1019.85 1019.98 1020.08 1020.17 1020.23 1020.29 1020.35 1020.42 1020.50 1020.58 1020.65 1020.70 1020.73 1020.71 1020.64 1020.50 1020.27 1019.95 1019.53 1019.02 1018.41 1017.74 1017.02 1016.29 1015.57 1014.88 1014.25 1013.69 1013.18 1012.73 1012.31 1011.91 1011.53 1011.15 1010.79 1010.44 1010.13
1018.48 1018.80 1019.09 1019.37 1019.62 1019.84 1020.03 1020.18 1020.30 1020.38 1020.44 1020.48 1020.52 1020.55 1020.58 1020.61 1020.65 1020.68 1020.69 1020.68 1020.64 1020.53 1020.36 1020.10 1019.73 1019.26 1018.70 1018.06 1017.36 1016.63 1015.89 1015.18 1014.51 1013.89 1013.32 1012.79 1012.30 1011.82 1011.36 1010.91 1010.49 1010.10 1009.75
1018.49 1018.86 1019.19 1019.49 1019.77 1020.01 1020.21 1020.38 1020.50 1020.58 1020.64 1020.66 1020.67 1020.67 1020.66 1020.65 1020.65 1020.65 1020.64 1020.63 1020.59 1020.51 1020.37 1020.15 1019.84 1019.44 1018.93 1018.34 1017.68 1016.98 1016.26 1015.54 1014.86 1014.20 1013.57 1012.97 1012.40 1011.83 1011.28 1010.75 1010.25 1009.80 1009.41
1018.53 1018.93 1019.29 1019.62 1019.92 1020.17 1020.39 1020.56 1020.69 1020.78 1020.83 1020.84 1020.84 1020.81 1020.77 1020.73 1020.69 1020.65 1020.62 1020.58 1020.53 1020.46 1020.33 1020.14 1019.87 1019.52 1019.07 1018.54 1017.94 1017.29 1016.61 1015.92 1015.23 1014.55 1013.89 1013.23 1012.57 1011.92 1011.28 1010.66 1010.08 1009.56 1009.13
1018.57 1019.01 1019.40 1019.76 1020.07 1020.34 1020.56 1020.74 1020.88 1020.97 1021.02 1021.03 1021.01 1020.97 1020.91 1020.84 1020.77 1020.70 1020.63 1020.56 1020.49 1020.39 1020.26 1020.07 1019.83 1019.51 1019.11 1018.64 1018.11 1017.52 1016.90 1016.25 1015.58 1014.91 1014.22 1013.52 1012.80 1012.08 1011.36 1010.66 1010.01 1009.42 1008.93
1018.61 1019.08 1019.51 1019.89 1020.22 1020.50 1020.73 1020.91 1021.05 1021.14 1021.20 1021.21 1021.19 1021.15 1021.08 1020.99 1020.90 1020.79 1020.69 1020.58 1020.46 1020.32 1020.16 1019.96 1019.72 1019.42 1019.06 1018.64 1018.17 1017.65 1017.10 1016.50 1015.88 1015.23 1014.54 1013.82 1013.07 1012.30 1011.53 1010.76 1010.04 1009.39 1008.84
1018.64 1019.15 1019.61 1020.01 1020.36 1020.65 1020.88 1021.07 1021.21 1021.30 1021.36 1021.37 1021.36 1021.32 1021.25 1021.15 1021.04 1020.91 1020.77 1020.61 1020.44 1020.26 1020.06 1019.83 1019.57 1019.28 1018.95 1018.57 1018.16 1017.70 1017.22 1016.69 1016.12 1015.51 1014.85 1014.14 1013.39 1012.60 1011.79 1010.98 1010.21 1009.51 1008.89
1018.64 1019.20 1019.69 1020.11 1020.48 1020.78 1021.01 1021.20 1021.33 1021.42 1021.48 1021.50 1021.50 1021.46 1021.39 1021.30 1021.18 1021.03 1020.86 1020.67 1020.45 1020.22 1019.98 1019.72 1019.44 1019.14 1018.82 1018.47 1018.11 1017.71 1017.29 1016.83 1016.32 1015.77 1015.16 1014.48 1013.76 1012.98 1012.17 1011.35 1010.55 1009.80 1009.13
1018.65 1019.23 1019.75 1020.20 1020.57 1020.87 1021.11 1021.29 1021.42 1021.51 1021.56 1021.59 1021.59 1021.56 1021.50 1021.41 1021.29 1021.14 1020.95 1020.73 1020.48 1020.22 1019.94 1019.65 1019.34 1019.04 1018.72 1018.40 1018.07 1017.73 1017.36 1016.97 1016.53 1016.04 1015.49 1014.88 1014.20 1013.46 1012.68 1011.87 1011.07 1010.29 1009.58
1018.66 1019.26 1019.80 1020.25 1020.63 1020.93 1021.17 1021.34 1021.46 1021.54 1021.59 1021.62 1021.63 1021.61 1021.57 1021.49 1021.38 1021.23 1021.04 1020.81 1020.55 1020.26 1019.96 1019.65 1019.34 1019.02 1018.72 1018.41 1018.11 1017.80 1017.49 1017.15 1016.78 1016.36 1015.88 1015.34 1014.72 1014.05 1013.32 1012.55 1011.77 1010.99 1010.24
Thickness
5723 5722 5722 5721 5721 5721 5721 5721 5720 5719 5718 5717 5716 5715 5715 5714 5714 5713 5713 5713 5713 5713 5714 5714 5713 5713 5713 5712 5712 5711 5711 5711 5710 5710 5710 5710 5711 5711 5712 5712 5712 5713 5713
5721 5720 5718 5718 5717 5717 5717 5717 5716 5715 5714 5713 5712 5711 5710 5709 5709 5708 5707 5707 5708 5709 5709 5709 5708 5708 5708 5707 5707 5706 5706 5706 5706 5706 5706 5705 5706 5706 5707 5707 5707 5708 5709
5718 5717 5716 5715 5714 5714 5714 5713 5712 5711 5710 5709 5707 5706 5706 5705 5704 5703 5703 5703 5703 5704 5704 5704 5704 5703 5703 5703 5702 5702 5701 5701 5701 5701 5701 5701 5701 5701 5702 5702 5702 5703 5703
5716 5714 5713 5712 5711 5711 5710 5709 5707 5705 5704 5703 5702 5701 5701 5700 5699 5699 5698 5698 5698 5698 5698 5699 5699 5699 5699 5698 5697 5697 5696 5696 5696 5696 5696 5696 5696 5697 5697 5697 5698 5698 5699
5712 5711 5710 5709 5708 5707 5706 5705 5703 5701 5699 5698 5698 5697 5696 5695 5695 5695 5694 5693 5693 5693 5693 5693 5694 5693 5693 5693 5693 5692 5691 5691 5691 5691 5691 5691 5691 5691 5692 5693 5693 5694 5694
5709 5708 5707 5705 5704 5703 5702 5701 5698 5697 5695 5694 5694 5692 5691 5691 5690 5690 5689 5688 5688 5687 5687 5687 5687 5687 5687 5687 5687 5687 5686 5686 5686 5686 5686 5686 5686 5687 5687 5688 5688 5689 5689
5705 5704 5703 5702 5700 5699 5697 5696 5695 5692 5690 5690 5687 5684 5684 5686 5685 5685 5684 5683 5683 5682 5682 5682 5682 5682 5682 5682 5682 5682 5682 5681 5681 5681 5681 5681 5681 5682 5682 5683 5683 5684 5684
5701 5701 5699 5698 5697 5695 5693 5692 5691 5687 5686 5686 5682 5676 5673 5674 5677 5679 5678 5677 5677 5677 5677 5677 5677 5677 5676 5676 5676 5676 5676 5676 5676 5675 5675 5675 5676 5677 5677 5678 5678 5679 5680
5697 5697 5696 5694 5693 5692 5690 5688 5687 5684 5681 5680 5679 5675 5667 5664 5666 5670 5671 5671 5671 5671 5671 5672 5672 5671 5671 5671 5671 5670 5671 5671 5670 5671 5670 5670 5671 5671 5672 5673 5673 5674 5675
5693 5693 5691 5690 5689 5687 5686 5685 5684 5682 5679 5675 5674 5673 5671 5668 5662 5660 5663 5665 5665 5666 5666 5667 5667 5666 5666 5666 5665 5665 5665 5665 5665 5666 5666 5666 5667 5667 5667 5668 5668 5669 5670
5687 5687 5687 5685 5684 5683 5682 5681 5679 5678 5676 5673 5670 5668 5666 5663 5660 5656 5654 5656 5658 5660 5661 5662 5662 5662 5662 5661 5661 5661 5660 5660 5661 5661 5662 5662 5662 5663 5663 5663 5664 5665 5665
5682 5682 5681 5680 5679 5678 5677 5676 5675 5673 5671 5670 5667 5665 5661 5658 5655 5652 5649 5648 5649 5653 5656 5657 5657 5657 5657 5657 5657 5657 5656 5656 5656 5657 5657 5657 5658 5658 5658 5659 5660 5660 5660
5675 5676 5676 5675 5674 5673 5672 5671 5669 5668 5667 5664 5662 5660 5658 5657 5654 5651 5647 5644 5644 5646 5649 5651 5652 5652 5652 5653 5653 5653 5652 5652 5652 5652 5652 5653 5653 5654 5654 5655 5655 5655 5656
5671 5671 5670 5670 5669 5668 5667 5666 5664 5662 5661 5659 5657 5655 5653 5652 5650 5648 5644 5640 5637 5638 5640 5643 5646 5647 5648 5648 5648 5648 5648 5647 5647 5647 5648 5648 5649 5650 5650 5650 5650 5651 5651
5667 5666 5664 5663 5663 5662 5661 5660 5658 5656 5654 5652 5651 5649 5647 5646 5645 5643 5642 5639 5634 5630 5632 5636 5638 5642 5643 5643 5643 5643 5643 5643 5643 5643 5643 5644 5644 5644 5644 5644 5645 5645 5645
5661 5659 5658 5656 5656 5655 5655 5653 5651 5650 5647 5646 5644 5643 5641 5640 5639 5638 5637 5635 5633 5630 5627 5630 5633 5636 5637 5638 5638 5638 5638 5638 5639 5639 5639 5639 5639 5639 5639 5639 5639 5640 5640
5654 5653 5651 5650 5649 5648 5647 5646 5644 5642 5640 5638 5637 5635 5634 5633 5632 5631 5630 5629 5627 5626 5623 5625 5627 5630 5630 5631 5632 5632 5633 5633 5634 5634 5634 5634 5634 5634 5634 5634 5634 5635 5635
5648 5647 5645 5643 5642 5641 5640 5639 5637 5635 5633 5631 5629 5627 5626 5626 5624 5624 5623 5622 5621 5620 5618 5617 5619 5621 5623 5624 5625 5626 5627 5627 5628 5628 5629 5629 5629 5629 5629 5628 5629 5629 5630
5641 5640 5638 5636 5635 5634 5633 5632 5630 5628 5627 5625 5623 5621 5619 5618 5617 5616 5616 5615 5614 5614 5612 5611 5611 5613 5614 5616 5616 5618 5619 5620 5621 5622 5623 5623 5623 5623 5623 5623 5623 5624 5624
5633 5632 5630 5629 5628 5627 5626 5625 5623 5621 5619 5618 5616 5614 5613 5612 5611 5610 5610 5608 5607 5605 5604 5603 5604 5604 5605 5607 5608 5608 5609 5611 5612 5614 5615 5616 5616 5616 5617 5617 5617 5618 5618
5626 5624 5622 5621 5620 5619 5619 5617 5616 5614 5612 5610 5608 5607 5607 5606 5606 5605 5605 5602 5600 5598 5596 5595 5595 5595 5596 5597 5599 5600 5601 5602 5603 5605 5606 5607 5608 5609 5610 5611 5611 5612 5613
5616 5615 5614 5612 5611 5611 5611 5610 5608 5606 5604 5602 5600 5599 5599 5599 5599 5599 5599 5598 5596 5593 5591 5589 5589 5588 5590 5591 5592 5592 5592 5592 5593 5596 5596 5598 5600 5601 5602 5604 5605 5606 5607
5607 5606 5605 5604 5603 5602 5602 5601 5600 5598 5595 5593 5592 5591 5591 5592 5591 5590 5590 5590 5589 5589 5589 5586 5584 5584 5585 5586 5585 5585 5585 5586 5587 5589 5588 5590 5591 5593 5595 5597 5598 5599 5600
5598 5596 5595 5594 5593 5593 5593 5592 5591 5588 5586 5585 5584 5583 5583 5583 5583 5582 5582 5581 5581 5581 5582 5582 5582 5582 5582 5582 5581 5581 5580 5579 5580 5581 5581 5582 5583 5585 5588 5590 5591 5592 5593
5589 5588 5587 5585 5584 5583 5583 5582 5581 5579 5577 5576 5576 5576 5575 5574 5576 5574 5573 5572 5572 5573 5574 5575 5575 5575 5575 5575 5574 5572 5571 5570 5571 5573 5573 5573 5575 5576 5579 5581 5583 5584 5585
5581 5580 5578 5576 5575 5574 5574 5573 5571 5569 5568 5567 5567 5566 5566 5566 5567 5566 5564 5563 5562 5563 5564 5564 5565 5566 5566 5567 5567 5566 5565 5563 5563 5564 5566 5566 5567 5567 5568 5572 5574 5575 5576